TimeMDT,TemperatureF,Dew PointF,Humidity,Sea Level PressureIn,VisibilityMPH,Wind Direction,Wind SpeedMPH,Gust SpeedMPH,PrecipitationIn,Events,Conditions,WindDirDegrees,DateUTC
12:53 AM,34.0,33.1,96,29.67,10.0,Calm,Calm,-,N/A,,Clear,0,2012-10-23 06:53:00
1:53 AM,37.9,36.0,93,29.63,10.0,WSW,3.5,-,N/A,,Clear,250,2012-10-23 07:53:00
2:53 AM,39.9,37.0,89,29.64,10.0,West,8.1,-,N/A,,Clear,260,2012-10-23 08:53:00
4:53 AM,44.1,37.0,76,29.59,10.0,WSW,6.9,-,N/A,,Partly Cloudy,250,2012-10-23 10:53:00
5:53 AM,46.0,36.0,68,29.60,10.0,WSW,6.9,-,N/A,,Clear,250,2012-10-23 11:53:00
6:53 AM,46.9,36.0,66,29.59,10.0,West,8.1,-,N/A,,Clear,260,2012-10-23 12:53:00
7:53 AM,46.9,36.0,66,29.62,10.0,WSW,5.8,-,N/A,,Partly Cloudy,250,2012-10-23 13:53:00
8:53 AM,51.1,37.9,61,29.63,10.0,WSW,6.9,-,0.00,,Mostly Cloudy,240,2012-10-23 14:53:00
9:53 AM,51.1,39.0,63,29.65,8.0,West,10.4,19.6,0.00,Rain,Light Rain,260,2012-10-23 15:53:00
10:53 AM,51.1,39.0,63,29.65,10.0,WSW,6.9,-,0.04,,Partly Cloudy,240,2012-10-23 16:53:00
11:53 AM,53.1,37.9,57,29.67,10.0,WSW,9.2,16.1,N/A,,Mostly Cloudy,250,2012-10-23 17:53:00
12:53 PM,55.9,36.0,47,29.67,10.0,WSW,18.4,26.5,N/A,,Clear,250,2012-10-23 18:53:00
1:53 PM,54.0,36.0,51,29.68,10.0,West,16.1,23.0,N/A,,Scattered Clouds,270,2012-10-23 19:53:00
2:53 PM,54.0,35.1,49,29.68,10.0,West,10.4,21.9,N/A,,Clear,260,2012-10-23 20:53:00
3:53 PM,52.0,33.1,49,29.70,10.0,West,9.2,19.6,N/A,,Partly Cloudy,260,2012-10-23 21:53:00
4:53 PM,50.0,30.9,48,29.73,10.0,West,10.4,16.1,N/A,,Clear,260,2012-10-23 22:53:00
5:53 PM,48.0,32.0,54,29.73,10.0,Calm,Calm,-,N/A,,Overcast,0,2012-10-23 23:53:00
6:53 PM,46.0,34.0,63,29.80,10.0,SSW,5.8,-,0.00,,Overcast,210,2012-10-24 00:53:00
7:53 PM,45.0,32.0,60,29.85,10.0,West,12.7,19.6,N/A,,Overcast,260,2012-10-24 01:53:00
8:53 PM,41.0,32.0,70,29.84,10.0,WSW,3.5,-,0.00,,Overcast,250,2012-10-24 02:53:00
9:53 PM,41.0,28.9,62,29.81,10.0,West,9.2,-,N/A,,Overcast,270,2012-10-24 03:53:00
10:53 PM,41.0,28.9,62,29.82,10.0,Variable,4.6,-,N/A,,Overcast,0,2012-10-24 04:53:00
11:53 PM,41.0,28.0,60,29.80,10.0,Calm,Calm,-,N/A,,Overcast,0,2012-10-24 05:53:00